N5462E PHTO-PHLI

Flight info

Callsign N5462E
Flight time 1h 31m
Altitude 26000
Route ITO V22 OKALA V16 NAPUA LIH
Aircraft SF50/L-SDGRWY/L

Departure

Time 2026-04-14 00:52
Airport Hilo International Airport (PHTO)

Arrival

Time 2026-04-14 02:23
Airport Lihue Airport (PHLI)
Time Latitude Longitude Altitude Speed Heading
2026-04-14 00:44 19.71628 -155.05690 32 ft 0 kts 219°
2026-04-14 00:48 19.71627 -155.05691 32 ft 1 kts 220°
2026-04-14 00:48 19.71614 -155.05702 32 ft 7 kts 220°
2026-04-14 00:49 19.71617 -155.05785 32 ft 17 kts 304°
2026-04-14 00:49 19.71713 -155.05900 33 ft 21 kts 325°
2026-04-14 00:49 19.71793 -155.05866 33 ft 13 kts 40°
2026-04-14 00:49 19.71857 -155.05809 33 ft 11 kts 41°
2026-04-14 00:50 19.71913 -155.05757 32 ft 10 kts 40°
2026-04-14 00:50 19.71973 -155.05748 31 ft 10 kts 344°
2026-04-14 00:50 19.72042 -155.05764 30 ft 10 kts 356°
2026-04-14 00:50 19.72111 -155.05767 30 ft 9 kts
2026-04-14 00:51 19.72148 -155.05727 30 ft 7 kts 88°
2026-04-14 00:51 19.72149 -155.05636 31 ft 33 kts 90°
2026-04-14 00:51 19.72147 -155.05192 31 ft 86 kts 90°
2026-04-14 00:51 19.72147 -155.04453 204 ft 111 kts 91°
2026-04-14 00:52 19.72155 -155.03486 421 ft 145 kts 92°
2026-04-14 00:52 19.72493 -155.02482 1027 ft 154 kts 55°
2026-04-14 00:52 19.73513 -155.01908 1318 ft 183 kts 13°
2026-04-14 00:52 19.74756 -155.02211 1872 ft 189 kts 329°
2026-04-14 00:53 19.75591 -155.03265 2400 ft 186 kts 294°
2026-04-14 00:53 19.76249 -155.04462 2838 ft 192 kts 307°
2026-04-14 00:53 19.77235 -155.05399 3371 ft 190 kts 322°
2026-04-14 00:53 19.78291 -155.06232 3863 ft 188 kts 320°
2026-04-14 00:54 19.79332 -155.07105 4250 ft 194 kts 319°
2026-04-14 00:54 19.80372 -155.07990 4757 ft 189 kts 319°
2026-04-14 00:54 19.81395 -155.08853 5204 ft 186 kts 320°
2026-04-14 00:54 19.82407 -155.09710 5622 ft 187 kts 319°
2026-04-14 00:55 19.83423 -155.10566 6057 ft 186 kts 319°
2026-04-14 00:55 19.84420 -155.11409 6481 ft 185 kts 319°
2026-04-14 00:55 19.85428 -155.12257 6860 ft 185 kts 319°
2026-04-14 00:55 19.86437 -155.13111 7233 ft 185 kts 320°
2026-04-14 00:56 19.87447 -155.13963 7583 ft 186 kts 319°
2026-04-14 00:56 19.88457 -155.14815 7945 ft 186 kts 319°
2026-04-14 00:56 19.89466 -155.15668 8314 ft 185 kts 319°
2026-04-14 00:56 19.90480 -155.16523 8666 ft 187 kts 319°
2026-04-14 00:57 19.91498 -155.17383 9022 ft 187 kts 319°
2026-04-14 00:57 19.92516 -155.18245 9388 ft 188 kts 319°
2026-04-14 00:57 19.93538 -155.19106 9764 ft 188 kts 319°
2026-04-14 00:57 19.94555 -155.19969 10131 ft 186 kts 319°
2026-04-14 00:58 19.95561 -155.20819 10407 ft 189 kts 318°
2026-04-14 00:58 19.96591 -155.21690 10702 ft 190 kts 318°
2026-04-14 00:58 19.97620 -155.22565 11040 ft 189 kts 317°
2026-04-14 00:58 19.98648 -155.23435 11382 ft 189 kts 317°
2026-04-14 00:59 19.99687 -155.24314 11671 ft 192 kts 317°
2026-04-14 00:59 20.00729 -155.25198 11991 ft 192 kts 316°
2026-04-14 00:59 20.01737 -155.26118 12284 ft 190 kts 307°
2026-04-14 00:59 20.02444 -155.27283 12604 ft 187 kts 292°
2026-04-14 01:00 20.02863 -155.28582 12912 ft 186 kts 284°
2026-04-14 01:00 20.03128 -155.29451 13127 ft 187 kts 285°
2026-04-14 01:00 20.03683 -155.31207 13572 ft 187 kts 284°
2026-04-14 01:00 20.04094 -155.32522 13902 ft 188 kts 284°
2026-04-14 01:01 20.04365 -155.33397 14094 ft 188 kts 284°
2026-04-14 01:01 20.04774 -155.34719 14390 ft 188 kts 284°
2026-04-14 01:01 20.05103 -155.35776 14626 ft 189 kts 284°
2026-04-14 01:01 20.05516 -155.37106 14914 ft 189 kts 284°
2026-04-14 01:02 20.06064 -155.38875 15295 ft 191 kts 283°
2026-04-14 01:02 20.06344 -155.39782 15485 ft 191 kts 284°
2026-04-14 01:02 20.06764 -155.41131 15765 ft 193 kts 283°
2026-04-14 01:02 20.07180 -155.42478 16073 ft 194 kts 283°
2026-04-14 01:03 20.07602 -155.43838 16397 ft 194 kts 283°
2026-04-14 01:03 20.08026 -155.45205 16699 ft 195 kts 283°
2026-04-14 01:03 20.08449 -155.46580 17003 ft 196 kts 283°
2026-04-14 01:03 20.08876 -155.47960 17283 ft 197 kts 283°
2026-04-14 01:04 20.09304 -155.49347 17578 ft 197 kts 282°
2026-04-14 01:04 20.09733 -155.50738 17852 ft 199 kts 282°
2026-04-14 01:04 20.10166 -155.52147 18109 ft 201 kts 282°
2026-04-14 01:04 20.10605 -155.53566 18376 ft 202 kts 282°
2026-04-14 01:05 20.11044 -155.54992 18616 ft 203 kts 283°
2026-04-14 01:05 20.11486 -155.56423 18865 ft 203 kts 282°
2026-04-14 01:05 20.11928 -155.57858 19110 ft 204 kts 283°
2026-04-14 01:05 20.12372 -155.59294 19385 ft 205 kts 282°
2026-04-14 01:06 20.12813 -155.60732 19599 ft 205 kts 282°
2026-04-14 01:06 20.13258 -155.62166 19806 ft 204 kts 283°
2026-04-14 01:06 20.13701 -155.63614 20046 ft 206 kts 282°
2026-04-14 01:06 20.14148 -155.65064 20319 ft 206 kts 283°
2026-04-14 01:07 20.14592 -155.66500 20567 ft 207 kts 282°
2026-04-14 01:07 20.15040 -155.67957 20815 ft 208 kts 282°
2026-04-14 01:07 20.15493 -155.69424 21074 ft 208 kts 282°
2026-04-14 01:07 20.15942 -155.70887 21351 ft 208 kts 282°
2026-04-14 01:08 20.16393 -155.72350 21628 ft 208 kts 282°
2026-04-14 01:08 20.16841 -155.73813 21903 ft 207 kts 282°
2026-04-14 01:08 20.17291 -155.75273 22162 ft 207 kts 282°
2026-04-14 01:08 20.17740 -155.76731 22434 ft 207 kts 281°
2026-04-14 01:09 20.18181 -155.78170 22690 ft 207 kts 281°
2026-04-14 01:09 20.18631 -155.79628 22952 ft 206 kts 281°
2026-04-14 01:09 20.19076 -155.81080 23217 ft 206 kts 281°
2026-04-14 01:09 20.19521 -155.82532 23495 ft 205 kts 281°
2026-04-14 01:10 20.19964 -155.83974 23745 ft 205 kts 282°
2026-04-14 01:10 20.20597 -155.85358 23970 ft 210 kts 291°
2026-04-14 01:10 20.21297 -155.86718 24210 ft 209 kts 289°
2026-04-14 01:10 20.21972 -155.88083 24449 ft 208 kts 289°
2026-04-14 01:11 20.22647 -155.89423 24692 ft 208 kts 290°
2026-04-14 01:11 20.23332 -155.90780 24938 ft 207 kts 290°
2026-04-14 01:11 20.24014 -155.92128 25177 ft 206 kts 289°
2026-04-14 01:11 20.24691 -155.93470 25419 ft 206 kts 289°
2026-04-14 01:12 20.25369 -155.94814 25646 ft 206 kts 289°
2026-04-14 01:12 20.26045 -155.96153 25889 ft 205 kts 289°
2026-04-14 01:12 20.26729 -155.97515 25964 ft 213 kts 289°
2026-04-14 01:12 20.27447 -155.98944 25978 ft 223 kts 290°
2026-04-14 01:13 20.28199 -156.00432 25977 ft 232 kts 290°
2026-04-14 01:13 20.28969 -156.01957 25975 ft 240 kts 290°
2026-04-14 01:13 20.29774 -156.03547 25976 ft 247 kts 290°
2026-04-14 01:13 20.30598 -156.05180 25975 ft 252 kts 290°
2026-04-14 01:14 20.31438 -156.06845 25974 ft 257 kts 291°
2026-04-14 01:14 20.32293 -156.08540 25976 ft 261 kts 291°
2026-04-14 01:14 20.33158 -156.10256 25976 ft 264 kts 291°
2026-04-14 01:14 20.34023 -156.11972 25980 ft 267 kts 291°
2026-04-14 01:15 20.34906 -156.13727 25991 ft 269 kts 291°
2026-04-14 01:15 20.35796 -156.15491 25991 ft 271 kts 291°
2026-04-14 01:15 20.36694 -156.17277 25991 ft 273 kts 291°
2026-04-14 01:15 20.37596 -156.19071 25992 ft 274 kts 291°
2026-04-14 01:16 20.38502 -156.20869 25987 ft 276 kts 291°
2026-04-14 01:16 20.39397 -156.22653 25989 ft 277 kts 291°
2026-04-14 01:16 20.40310 -156.24467 25988 ft 278 kts 291°
2026-04-14 01:16 20.41227 -156.26292 25989 ft 279 kts 291°
2026-04-14 01:18 20.47669 -156.39136 25991 ft 282 kts 291°
2026-04-14 01:18 20.48595 -156.40985 25991 ft 283 kts 291°
2026-04-14 01:19 20.49522 -156.42838 25989 ft 283 kts 291°
2026-04-14 01:19 20.50451 -156.44691 25990 ft 283 kts 291°
2026-04-14 01:19 20.51381 -156.46551 26001 ft 283 kts 291°
2026-04-14 01:19 20.52310 -156.48409 26001 ft 284 kts 291°
2026-04-14 01:20 20.53241 -156.50268 26001 ft 284 kts 291°
2026-04-14 01:20 20.54157 -156.52104 25999 ft 284 kts 291°
2026-04-14 01:20 20.55087 -156.53964 25999 ft 284 kts 291°
2026-04-14 01:20 20.56019 -156.55828 25999 ft 285 kts 291°
2026-04-14 01:21 20.56950 -156.57692 26001 ft 285 kts 291°
2026-04-14 01:21 20.57885 -156.59564 25998 ft 286 kts 291°
2026-04-14 01:21 20.58822 -156.61442 25998 ft 286 kts 291°
2026-04-14 01:21 20.59748 -156.63297 26000 ft 286 kts 291°
2026-04-14 01:22 20.60683 -156.65168 25997 ft 286 kts 291°
2026-04-14 01:22 20.61615 -156.67040 26002 ft 286 kts 291°
2026-04-14 01:22 20.62550 -156.68914 26007 ft 286 kts 291°
2026-04-14 01:22 20.63483 -156.70785 26012 ft 285 kts 291°
2026-04-14 01:23 20.64416 -156.72660 26020 ft 285 kts 291°
2026-04-14 01:23 20.65349 -156.74531 26024 ft 285 kts 291°
2026-04-14 01:23 20.66279 -156.76400 26029 ft 285 kts 291°
2026-04-14 01:23 20.67211 -156.78272 26034 ft 285 kts 291°
2026-04-14 01:24 20.68143 -156.80143 26040 ft 285 kts 291°
2026-04-14 01:24 20.69073 -156.82015 26044 ft 285 kts 291°
2026-04-14 01:24 20.70003 -156.83885 26048 ft 285 kts 291°
2026-04-14 01:24 20.70920 -156.85729 26052 ft 285 kts 291°
2026-04-14 01:25 20.71847 -156.87600 26053 ft 285 kts 291°
2026-04-14 01:25 20.72776 -156.89469 26066 ft 285 kts 291°
2026-04-14 01:25 20.73704 -156.91339 26056 ft 285 kts 291°
2026-04-14 01:25 20.74632 -156.93212 26057 ft 285 kts 291°
2026-04-14 01:26 20.75564 -156.95089 26056 ft 286 kts 291°
2026-04-14 01:26 20.76468 -156.96983 26054 ft 283 kts 287°
2026-04-14 01:26 20.77118 -156.98961 26058 ft 280 kts 282°
2026-04-14 01:26 20.77747 -157.00915 26054 ft 281 kts 283°
2026-04-14 01:27 20.78400 -157.02891 26058 ft 281 kts 283°
2026-04-14 01:27 20.79040 -157.04868 26057 ft 281 kts 282°
2026-04-14 01:27 20.79674 -157.06843 26053 ft 281 kts 283°
2026-04-14 01:27 20.80313 -157.08818 26048 ft 281 kts 283°
2026-04-14 01:28 20.80942 -157.10768 26043 ft 281 kts 283°
2026-04-14 01:28 20.81580 -157.12745 26038 ft 281 kts 283°
2026-04-14 01:28 20.82217 -157.14721 26036 ft 281 kts 282°
2026-04-14 01:28 20.82853 -157.16694 26029 ft 281 kts 283°
2026-04-14 01:29 20.83491 -157.18668 26022 ft 281 kts 283°
2026-04-14 01:29 20.84127 -157.20641 26017 ft 280 kts 282°
2026-04-14 01:29 20.84758 -157.22599 26015 ft 281 kts 282°
2026-04-14 01:29 20.85393 -157.24570 26009 ft 280 kts 282°
2026-04-14 01:30 20.86027 -157.26543 26005 ft 280 kts 282°
2026-04-14 01:30 20.86662 -157.28511 25997 ft 280 kts 282°
2026-04-14 01:30 20.87296 -157.30487 25992 ft 280 kts 282°
2026-04-14 01:30 20.87930 -157.32459 25987 ft 280 kts 282°
2026-04-14 01:31 20.88563 -157.34427 25988 ft 279 kts 282°
2026-04-14 01:31 20.89193 -157.36394 25988 ft 279 kts 282°
2026-04-14 01:31 20.89825 -157.38358 25988 ft 279 kts 282°
2026-04-14 01:31 20.90446 -157.40297 25987 ft 278 kts 282°
2026-04-14 01:32 20.91075 -157.42260 25982 ft 278 kts 282°
2026-04-14 01:32 20.91704 -157.44219 25985 ft 278 kts 282°
2026-04-14 01:32 20.92331 -157.46180 25983 ft 278 kts 282°
2026-04-14 01:32 20.92958 -157.48136 25982 ft 278 kts 282°
2026-04-14 01:33 20.93584 -157.50094 25980 ft 278 kts 282°
2026-04-14 01:33 20.94210 -157.52052 25978 ft 278 kts 282°
2026-04-14 01:33 20.94836 -157.54008 25980 ft 278 kts 282°
2026-04-14 01:33 20.95461 -157.55967 25973 ft 278 kts 282°
2026-04-14 01:34 20.96087 -157.57924 25977 ft 278 kts 282°
2026-04-14 01:34 20.96711 -157.59880 25978 ft 278 kts 282°
2026-04-14 01:34 20.97335 -157.61834 25975 ft 278 kts 282°
2026-04-14 01:34 20.97950 -157.63762 25978 ft 277 kts 282°
2026-04-14 01:35 20.98572 -157.65716 25974 ft 277 kts 282°
2026-04-14 01:35 20.99197 -157.67674 25972 ft 277 kts 282°
2026-04-14 01:35 20.99819 -157.69628 25973 ft 277 kts 282°
2026-04-14 01:35 21.00441 -157.71579 25974 ft 277 kts 282°
2026-04-14 01:36 21.01062 -157.73532 25973 ft 277 kts 281°
2026-04-14 01:36 21.01685 -157.75487 25971 ft 277 kts 282°
2026-04-14 01:36 21.02300 -157.77422 25971 ft 277 kts 281°
2026-04-14 01:36 21.02923 -157.79380 25971 ft 278 kts 282°
2026-04-14 01:37 21.03548 -157.81344 25967 ft 278 kts 281°
2026-04-14 01:37 21.04169 -157.83300 25968 ft 277 kts 282°
2026-04-14 01:37 21.04791 -157.85255 25965 ft 277 kts 281°
2026-04-14 01:37 21.05411 -157.87209 25968 ft 277 kts 281°
2026-04-14 01:38 21.06647 -157.91102 25967 ft 277 kts 281°
2026-04-14 01:38 21.07265 -157.93054 25967 ft 277 kts 281°
2026-04-14 01:38 21.07887 -157.95011 25967 ft 277 kts 281°
2026-04-14 01:39 21.08504 -157.96966 25965 ft 277 kts 281°
2026-04-14 01:39 21.09124 -157.98927 25970 ft 277 kts 281°
2026-04-14 01:39 21.09734 -158.00852 25982 ft 277 kts 281°
2026-04-14 01:39 21.10350 -158.02804 25980 ft 277 kts 281°
2026-04-14 01:40 21.10968 -158.04755 25986 ft 277 kts 281°
2026-04-14 01:40 21.11585 -158.06710 25987 ft 276 kts 281°
2026-04-14 01:40 21.12202 -158.08663 25987 ft 276 kts 281°
2026-04-14 01:40 21.12818 -158.10615 25986 ft 276 kts 281°
2026-04-14 01:41 21.13432 -158.12567 25982 ft 276 kts 281°
2026-04-14 01:41 21.14042 -158.14500 25983 ft 276 kts 281°
2026-04-14 01:41 21.14657 -158.16449 25982 ft 276 kts 281°
2026-04-14 01:41 21.15273 -158.18407 25984 ft 276 kts 281°
2026-04-14 01:42 21.15888 -158.20360 25985 ft 277 kts 281°
2026-04-14 01:42 21.16504 -158.22318 25985 ft 277 kts 281°
2026-04-14 01:42 21.17111 -158.24248 25985 ft 277 kts 281°
2026-04-14 01:42 21.17727 -158.26204 25984 ft 277 kts 281°
2026-04-14 01:43 21.18341 -158.28161 25983 ft 277 kts 281°
2026-04-14 01:43 21.18963 -158.30114 25981 ft 278 kts 283°
2026-04-14 01:43 21.19821 -158.31997 25977 ft 285 kts 292°
2026-04-14 01:43 21.20888 -158.33797 25978 ft 285 kts 294°
2026-04-14 01:44 21.21945 -158.35604 25976 ft 285 kts 293°
2026-04-14 01:44 21.22995 -158.37409 25975 ft 285 kts 294°
2026-04-14 01:44 21.24039 -158.39188 25974 ft 285 kts 294°
2026-04-14 01:44 21.25099 -158.40996 25973 ft 285 kts 294°
2026-04-14 01:45 21.26155 -158.42798 25974 ft 286 kts 294°
2026-04-14 01:45 21.27214 -158.44607 25973 ft 286 kts 294°
2026-04-14 01:45 21.28270 -158.46411 25967 ft 286 kts 294°
2026-04-14 01:45 21.29327 -158.48216 25968 ft 286 kts 294°
2026-04-14 01:46 21.30369 -158.49998 25964 ft 286 kts 294°
2026-04-14 01:46 21.31427 -158.51807 25965 ft 286 kts 294°
2026-04-14 01:46 21.32485 -158.53616 25970 ft 286 kts 293°
2026-04-14 01:46 21.33540 -158.55422 25970 ft 286 kts 293°
2026-04-14 01:47 21.34598 -158.57234 25967 ft 286 kts 293°
2026-04-14 01:47 21.35655 -158.59042 25981 ft 286 kts 293°
2026-04-14 01:47 21.36716 -158.60862 25959 ft 287 kts 294°
2026-04-14 01:47 21.37780 -158.62683 25959 ft 288 kts 294°
2026-04-14 01:48 21.38847 -158.64511 25959 ft 288 kts 294°
2026-04-14 01:48 21.39898 -158.66315 25959 ft 289 kts 294°
2026-04-14 01:48 21.40966 -158.68145 25959 ft 289 kts 294°
2026-04-14 01:48 21.42033 -158.69980 25959 ft 289 kts 294°
2026-04-14 01:49 21.43101 -158.71812 25960 ft 289 kts 294°
2026-04-14 01:49 21.44156 -158.73623 25960 ft 289 kts 294°
2026-04-14 01:49 21.45228 -158.75468 25960 ft 290 kts 294°
2026-04-14 01:49 21.45936 -158.76683 25960 ft 290 kts 294°
2026-04-14 01:50 21.47007 -158.78523 25958 ft 290 kts 294°
2026-04-14 01:50 21.48423 -158.80960 25959 ft 290 kts 294°
2026-04-14 01:50 21.49492 -158.82797 25959 ft 290 kts 294°
2026-04-14 01:50 21.50201 -158.84018 25959 ft 290 kts 294°
2026-04-14 01:51 21.51269 -158.85856 25961 ft 290 kts 294°
2026-04-14 01:51 21.52343 -158.87703 25955 ft 291 kts 294°
2026-04-14 01:51 21.53420 -158.89550 25955 ft 291 kts 294°
2026-04-14 01:51 21.54496 -158.91398 25956 ft 291 kts 294°
2026-04-14 01:52 21.55568 -158.93243 25954 ft 291 kts 294°
2026-04-14 01:52 21.56642 -158.95088 25954 ft 291 kts 294°
2026-04-14 01:52 21.57702 -158.96912 25954 ft 291 kts 294°
2026-04-14 01:52 21.58778 -158.98760 25954 ft 291 kts 294°
2026-04-14 01:53 21.59853 -159.00610 25955 ft 291 kts 294°
2026-04-14 01:53 21.60927 -159.02460 25955 ft 292 kts 294°
2026-04-14 01:53 21.62003 -159.04311 25955 ft 292 kts 294°
2026-04-14 01:53 21.63078 -159.06163 25955 ft 292 kts 294°
2026-04-14 01:54 21.64156 -159.08021 25957 ft 292 kts 294°
2026-04-14 01:54 21.65232 -159.09874 25957 ft 292 kts 294°
2026-04-14 01:54 21.66306 -159.11728 25957 ft 292 kts 294°
2026-04-14 01:54 21.67382 -159.13582 25957 ft 292 kts 294°
2026-04-14 01:55 21.68445 -159.15416 25957 ft 292 kts 294°
2026-04-14 01:55 21.69519 -159.17272 25957 ft 292 kts 294°
2026-04-14 01:55 21.70600 -159.19140 25957 ft 292 kts 294°
2026-04-14 01:55 21.71676 -159.21003 25955 ft 293 kts 294°
2026-04-14 01:56 21.72939 -159.22757 25952 ft 301 kts 305°
2026-04-14 01:56 21.74505 -159.24249 25950 ft 309 kts 315°
2026-04-14 01:56 21.76373 -159.25441 25961 ft 315 kts 327°
2026-04-14 01:56 21.78436 -159.26296 25956 ft 318 kts 333°
2026-04-14 01:57 21.80522 -159.27116 25966 ft 317 kts 332°
2026-04-14 01:57 21.82590 -159.27947 25969 ft 317 kts 332°
2026-04-14 01:57 21.84636 -159.28758 25968 ft 317 kts 332°
2026-04-14 01:57 21.86713 -159.29577 25975 ft 317 kts 332°
2026-04-14 01:58 21.88786 -159.30400 25984 ft 316 kts 332°
2026-04-14 01:58 21.90855 -159.31221 25972 ft 316 kts 332°
2026-04-14 01:58 21.92924 -159.32040 25971 ft 316 kts 332°
2026-04-14 01:58 21.94991 -159.32861 25971 ft 316 kts 332°
2026-04-14 01:59 21.97058 -159.33682 25971 ft 316 kts 332°
2026-04-14 01:59 21.99089 -159.34485 25797 ft 313 kts 332°
2026-04-14 01:59 22.01119 -159.35290 25425 ft 308 kts 332°
2026-04-14 01:59 22.03116 -159.36083 25024 ft 303 kts 332°
2026-04-14 02:00 22.05084 -159.36866 24625 ft 299 kts 333°
2026-04-14 02:00 22.07039 -159.37644 24220 ft 298 kts 333°
2026-04-14 02:00 22.08955 -159.38405 23842 ft 292 kts 333°
2026-04-14 02:00 22.10840 -159.39151 23434 ft 285 kts 333°
2026-04-14 02:01 22.12693 -159.39890 23056 ft 283 kts 333°
2026-04-14 02:01 22.14546 -159.40632 22669 ft 285 kts 333°
2026-04-14 02:01 22.16487 -159.41198 22283 ft 296 kts 347°
2026-04-14 02:01 22.18578 -159.41071 21892 ft 307 kts
2026-04-14 02:02 22.20565 -159.40213 21491 ft 318 kts 26°
2026-04-14 02:02 22.22253 -159.38626 21073 ft 327 kts 47°
2026-04-14 02:02 22.23360 -159.36477 20650 ft 331 kts 69°
2026-04-14 02:02 22.23717 -159.34029 20215 ft 331 kts 92°
2026-04-14 02:03 22.23274 -159.31613 19776 ft 326 kts 114°
2026-04-14 02:03 22.22119 -159.29546 19353 ft 319 kts 135°
2026-04-14 02:03 22.20435 -159.28047 18932 ft 310 kts 155°
2026-04-14 02:03 22.18484 -159.27250 18528 ft 301 kts 174°
2026-04-14 02:04 22.16428 -159.27156 18108 ft 292 kts 192°
2026-04-14 02:04 22.14503 -159.27730 17713 ft 284 kts 208°
2026-04-14 02:04 22.12712 -159.28632 17337 ft 284 kts 209°
2026-04-14 02:04 22.10912 -159.29531 16960 ft 286 kts 208°
2026-04-14 02:05 22.09095 -159.30429 16581 ft 287 kts 208°
2026-04-14 02:05 22.07279 -159.31335 16202 ft 287 kts 208°
2026-04-14 02:05 22.05482 -159.32234 15826 ft 290 kts 208°
2026-04-14 02:05 22.03642 -159.33150 15443 ft 291 kts 207°
2026-04-14 02:06 22.01789 -159.34024 15055 ft 292 kts 202°
2026-04-14 02:06 21.99759 -159.34345 14666 ft 298 kts 183°
2026-04-14 02:06 21.97698 -159.33957 14272 ft 303 kts 165°
2026-04-14 02:06 21.95743 -159.33171 13884 ft 304 kts 162°
2026-04-14 02:07 21.93770 -159.32370 13453 ft 301 kts 163°
2026-04-14 02:07 21.91807 -159.31598 13051 ft 299 kts 163°
2026-04-14 02:07 21.89863 -159.30832 12658 ft 296 kts 163°
2026-04-14 02:07 21.87932 -159.30064 12266 ft 294 kts 163°
2026-04-14 02:08 21.86017 -159.29305 11880 ft 292 kts 163°
2026-04-14 02:08 21.84114 -159.28552 11491 ft 290 kts 163°
2026-04-14 02:08 21.82223 -159.27802 11107 ft 288 kts 163°
2026-04-14 02:08 21.80344 -159.27059 10726 ft 286 kts 163°
2026-04-14 02:09 21.78499 -159.26329 10342 ft 285 kts 162°
2026-04-14 02:09 21.76624 -159.25585 9963 ft 283 kts 162°
2026-04-14 02:09 21.74808 -159.24869 9570 ft 281 kts 162°
2026-04-14 02:09 21.72996 -159.24086 9183 ft 282 kts 154°
2026-04-14 02:10 21.71533 -159.22669 8771 ft 289 kts 128°
2026-04-14 02:10 21.70781 -159.20667 8371 ft 293 kts 102°
2026-04-14 02:10 21.70911 -159.18499 7974 ft 293 kts 75°
2026-04-14 02:10 21.71894 -159.16614 7591 ft 290 kts 48°
2026-04-14 02:11 21.73527 -159.15387 7215 ft 286 kts 21°
2026-04-14 02:11 21.75437 -159.14842 6867 ft 282 kts
2026-04-14 02:11 21.77374 -159.14548 6530 ft 280 kts
2026-04-14 02:11 21.79311 -159.14383 6178 ft 278 kts 359°
2026-04-14 02:12 21.81168 -159.14747 5824 ft 274 kts 339°
2026-04-14 02:12 21.82952 -159.15464 5490 ft 274 kts 336°
2026-04-14 02:12 21.84722 -159.16226 5155 ft 273 kts 335°
2026-04-14 02:12 21.86477 -159.16994 4818 ft 272 kts 335°
2026-04-14 02:13 21.88233 -159.17764 4469 ft 273 kts 335°
2026-04-14 02:13 21.89981 -159.18540 4121 ft 271 kts 335°
2026-04-14 02:13 21.91692 -159.19384 3769 ft 270 kts 328°
2026-04-14 02:13 21.93253 -159.20487 3436 ft 267 kts 323°
2026-04-14 02:14 21.94766 -159.21653 3092 ft 267 kts 322°
2026-04-14 02:14 21.96216 -159.22760 2998 ft 241 kts 325°
2026-04-14 02:14 21.97530 -159.23751 2988 ft 223 kts 312°
2026-04-14 02:14 21.98412 -159.25068 2988 ft 216 kts 309°
2026-04-14 02:15 21.99699 -159.25888 2996 ft 221 kts 345°
2026-04-14 02:15 22.01217 -159.25769 2990 ft 222 kts 22°
2026-04-14 02:15 22.02418 -159.24796 2994 ft 219 kts 50°
2026-04-14 02:15 22.03395 -159.23537 2998 ft 219 kts 53°
2026-04-14 02:16 22.04440 -159.22336 2999 ft 221 kts 44°
2026-04-14 02:16 22.05686 -159.21364 3004 ft 222 kts 32°
2026-04-14 02:16 22.07108 -159.20694 2998 ft 226 kts 16°
2026-04-14 02:16 22.08651 -159.20646 2989 ft 222 kts 345°
2026-04-14 02:17 22.10054 -159.21277 2989 ft 213 kts 325°
2026-04-14 02:17 22.11102 -159.22312 2986 ft 199 kts 304°
2026-04-14 02:17 22.11747 -159.23581 2988 ft 190 kts 285°
2026-04-14 02:17 22.12040 -159.24955 2989 ft 186 kts 271°
2026-04-14 02:18 22.11921 -159.26327 2991 ft 184 kts 251°
2026-04-14 02:18 22.11413 -159.27551 2934 ft 170 kts 233°
2026-04-14 02:18 22.10701 -159.28402 2743 ft 140 kts 218°
2026-04-14 02:18 22.09934 -159.28945 2559 ft 128 kts 206°
2026-04-14 02:19 22.09181 -159.29407 2403 ft 124 kts 208°
2026-04-14 02:19 22.08436 -159.29873 2240 ft 124 kts 207°
2026-04-14 02:19 22.07690 -159.30338 2077 ft 124 kts 207°
2026-04-14 02:19 22.06943 -159.30800 1911 ft 125 kts 207°
2026-04-14 02:20 22.06186 -159.31271 1736 ft 125 kts 207°
2026-04-14 02:20 22.05417 -159.31732 1569 ft 125 kts 201°
2026-04-14 02:20 22.04585 -159.31971 1399 ft 126 kts 191°
2026-04-14 02:20 22.03741 -159.32217 1234 ft 124 kts 193°
2026-04-14 02:21 22.02908 -159.32456 1070 ft 125 kts 192°
2026-04-14 02:21 22.02065 -159.32702 905 ft 125 kts 193°
2026-04-14 02:21 22.01232 -159.32941 742 ft 123 kts 195°
2026-04-14 02:21 22.00410 -159.33180 587 ft 117 kts 194°
2026-04-14 02:22 21.99681 -159.33389 387 ft 107 kts 195°
2026-04-14 02:22 21.98898 -159.33547 280 ft 117 kts 186°
2026-04-14 02:22 21.98117 -159.33583 166 ft 100 kts 180°
2026-04-14 02:22 21.97548 -159.33591 115 ft 70 kts 180°
2026-04-14 02:23 21.97124 -159.33591 98 ft 53 kts 180°
2026-04-14 02:23 21.96867 -159.33591 90 ft 32 kts 180°
2026-04-14 02:23 21.96743 -159.33638 88 ft 15 kts 263°
2026-04-14 02:23 21.96779 -159.33709 90 ft 11 kts 356°
2026-04-14 02:24 21.96852 -159.33710 91 ft 9 kts
2026-04-14 02:24 21.96935 -159.33710 94 ft 20 kts
2026-04-14 02:24 21.97097 -159.33711 99 ft 26 kts 359°
2026-04-14 02:24 21.97258 -159.33711 105 ft 20 kts
2026-04-14 02:25 21.97414 -159.33710 110 ft 25 kts
2026-04-14 02:25 21.97588 -159.33710 117 ft 20 kts 360°
2026-04-14 02:25 21.97732 -159.33710 121 ft 22 kts
2026-04-14 02:25 21.97897 -159.33709 123 ft 24 kts
2026-04-14 02:26 21.98069 -159.33709 126 ft 26 kts 360°
2026-04-14 02:26 21.98211 -159.33709 112 ft 16 kts 360°
2026-04-14 02:26 21.98297 -159.33711 89 ft 14 kts 352°
2026-04-14 02:26 21.98375 -159.33775 84 ft 13 kts 317°
2026-04-14 02:27 21.98425 -159.33828 87 ft 11 kts 315°
2026-04-14 02:27 21.98495 -159.33903 92 ft 15 kts 305°
2026-04-14 02:27 21.98459 -159.33927 93 ft 6 kts 132°
2026-04-14 02:27 21.98458 -159.33926 93 ft 0 kts 133°